Preview of NWS' New Version of Forecast
This preview is not operational and should not be used for support decisions.

Regional Weather Roundup (RWR)

Issued by National Weather Service (NWS)

                            
000
ASUS43 KTOP 241659
RWRKS 

WEATHER ROUNDUP FOR KANSAS
NATIONAL WEATHER SERVICE GOODLAND KS
1200 PM CDT MON JUN 24 2019

NOTE:  "FAIR" INDICATES FEW OR NO CLOUDS BELOW 12,000 FEET WITH NO
SIGNIFICANT WEATHER AND/OR OBSTRUCTIONS TO VISIBILITY.

KSZ001>006-013>018-027>032-041>047-241800-
NORTHWEST KANSAS
  
CITY           SKY/WX    TMP DP  RH WIND       PRES   REMARKS
GOODLAND       SUNNY     78  45  30 W14G23    29.92S                  
HAYS           SUNNY     75  54  47 SW13      29.91F                  
HILL CITY      SUNNY     79  49  34 W9        29.88F                  
RUSSELL        SUNNY     74  51  44 W15       29.90F                  
$$

KSZ061>065-074>080-084>089-241800-
SOUTHWEST KANSAS
  
CITY           SKY/WX    TMP DP  RH WIND       PRES   REMARKS
DODGE CITY     SUNNY     75  50  41 W15G25    29.96F                  
GARDEN CITY    SUNNY     74  51  44 SW14      29.96F                  
GREAT BEND     SUNNY     73  54  51 W12G20    29.94S                  
LIBERAL        SUNNY     75  52  44 SW15G21   30.01F                  
$$

KSZ066>073-081>083-090>101-241800-
SOUTHEAST KANSAS
  
CITY           SKY/WX    TMP DP  RH WIND       PRES   REMARKS
CHANUTE        SUNNY     74  56  53 W6        29.93R                  
COFFEYVILLE    SUNNY     75  58  55 NW8       29.93R                  
HUTCHINSON     SUNNY     74  53  48 W12G18    29.92S                  
MEDICINE LODGE   N/A     77  54  44 VRB7      29.95R                  
NEWTON         SUNNY     72  55  55 W12       29.93S                  
PARSONS        SUNNY     74  59  59 W7        29.95R                  
WICHITA INTL   SUNNY     75  55  49 W8        29.93S                  
WICHITA JABRA  SUNNY     73  54  51 VRB3G18   29.93R                  
WICHITA MCCONL SUNNY     73  55  53 W7        29.93S                  
WINFIELD       SUNNY     75  55  49 W9        29.96R                  
$$

KSZ007>012-019>026-033>040-048>060-102>105-241800-
NORTHEAST KANSAS
  
CITY           SKY/WX    TMP DP  RH WIND       PRES   REMARKS
CONCORDIA      SUNNY     75  55  49 SW12      29.87F                  
EMPORIA        SUNNY     72  56  57 NW9       29.90R                  
LAWRENCE       SUNNY     74  57  55 W9        29.86S                  
MANHATTAN      SUNNY     75  54  47 W9G20     29.87S                  
OLATHE IND     SUNNY     72  57  59 NW12      29.88R                  
OLATHE EXE     SUNNY     73  57  57 W9        29.87R                  
SALINA         SUNNY     74  54  49 W15G21    29.90S                  
TOPEKA BILLARD SUNNY     75  54  47 VRB7      29.86S                  
TOPEKA FORBES  SUNNY     74  53  48 W8G20     29.87S                  
$$